| time (UTC) | temp F | wind direction | speed knots | gust knots | rain 1hr in | rain 24hr in | rain mn in | humidity % | barometer mb |
| 20260503050021 | 76 | 178 | 0.9 | 7.0 | 0.00 | 0.02 | 0.00 | 67 | 1019.4 |
| 20260503044529 | 76 | 342 | 0.9 | 6.1 | 0.00 | 0.02 | 0.00 | 66 | 1019.3 |
| 20260503043015 | 77 | 132 | 4.3 | 10.4 | 0.00 | 0.02 | 0.00 | 65 | 1019.4 |
| 20260503041513 | 77 | 118 | 0.9 | 7.0 | 0.00 | 0.02 | 0.00 | 68 | 1019.2 |
| 20260503040017 | 76 | 133 | 4.3 | 9.6 | 0.00 | 0.02 | 0.00 | 66 | 1019.4 |
| 20260503034514 | 76 | 141 | 1.7 | 5.2 | 0.00 | 0.02 | 0.00 | 69 | 1019.4 |
| 20260503033009 | 76 | 117 | 3.5 | 10.4 | 0.00 | 0.02 | 0.00 | 67 | 1019.5 |
| 20260503031507 | 76 | 269 | 1.7 | 7.8 | 0.00 | 0.02 | 0.00 | 69 | 1019.7 |
| 20260503030006 | 77 | 303 | 4.3 | 9.6 | 0.00 | 0.02 | 0.00 | 66 | 1019.7 |
| 20260503024502 | 78 | 1 | 1.7 | 7.0 | 0.00 | 0.02 | 0.00 | 66 | 1020.0 |
| 20260503023101 | 77 | 269 | 1.7 | 7.8 | 0.00 | 0.02 | 0.00 | 68 | 1020.2 |
| 20260503021556 | 75 | 135 | 1.7 | 9.6 | 0.00 | 0.02 | 0.00 | 70 | 1020.6 |
| 20260503020053 | 76 | 121 | 4.3 | 8.7 | 0.00 | 0.02 | 0.00 | 70 | 1020.7 |
| 20260503014552 | 75 | 141 | 4.3 | 12.2 | 0.00 | 0.02 | 0.00 | 71 | 1020.9 |
| 20260503013055 | 76 | 135 | 1.7 | 10.4 | 0.00 | 0.02 | 0.00 | 71 | 1021.1 |
| 20260503011554 | 75 | 133 | 1.7 | 7.8 | 0.00 | 0.02 | 0.00 | 73 | 1021.5 |
| 20260503010107 | 75 | 131 | 4.3 | 8.7 | 0.00 | 0.02 | 0.00 | 74 | 1021.7 |
| 20260503004539 | 74 | 117 | 2.6 | 6.1 | 0.00 | 0.02 | 0.00 | 75 | 1022.0 |
| 20260503003036 | 74 | 183 | 3.5 | 8.7 | 0.00 | 0.02 | 0.00 | 77 | 1022.2 |
| 20260503001533 | 72 | 197 | 1.7 | 7.0 | 0.00 | 0.02 | 0.00 | 78 | 1022.4 |
| 20260503000031 | 73 | 192 | 5.2 | 9.6 | 0.00 | 0.02 | 0.00 | 78 | 1022.4 |
| 20260502234529 | 72 | 137 | 3.5 | 10.4 | 0.00 | 0.02 | 0.00 | 79 | 1022.5 |
| 20260502233024 | 71 | 178 | 1.7 | 9.6 | 0.00 | 0.02 | 0.00 | 80 | 1022.6 |
| 20260502231522 | 70 | 137 | 3.5 | 8.7 | 0.00 | 0.02 | 0.00 | 80 | 1022.6 |
| 20260502230023 | 69 | 122 | 3.5 | 8.7 | 0.00 | 0.02 | 0.00 | 81 | 1022.6 |
| 20260502224515 | 67 | 196 | 3.5 | 9.6 | 0.00 | 0.02 | 0.00 | 84 | 1022.6 |
| 20260502223012 | 67 | 164 | 5.2 | 11.3 | 0.00 | 0.02 | 0.00 | 84 | 1022.4 |
| 20260502221508 | 66 | 163 | 4.3 | 8.7 | 0.00 | 0.02 | 0.00 | 85 | 1022.2 |
| 20260502220005 | 65 | 161 | 5.2 | 10.4 | 0.00 | 0.02 | 0.00 | 86 | 1022.1 |
| 20260502214503 | 65 | 193 | 4.3 | 10.4 | 0.00 | 0.02 | 0.00 | 87 | 1022.0 |
| 20260502213001 | 64 | 172 | 4.3 | 10.4 | 0.00 | 0.02 | 0.00 | 88 | 1021.7 |
| 20260502211607 | 64 | 160 | 3.5 | 12.2 | 0.00 | 0.02 | 0.00 | 89 | 1021.8 |
| 20260502210057 | 63 | 178 | 4.3 | 7.8 | 0.00 | 0.02 | 0.00 | 89 | 1021.7 |
| 20260502204555 | 63 | 137 | 3.5 | 9.6 | 0.00 | 0.04 | 0.00 | 89 | 1021.5 |
| 20260502203106 | 63 | 204 | 3.5 | 8.7 | 0.00 | 0.04 | 0.00 | 89 | 1021.4 |
| 20260502201604 | 63 | 201 | 0.9 | 5.2 | 0.00 | 0.04 | 0.00 | 89 | 1021.4 |
| 20260502200049 | 63 | 199 | 1.7 | 4.3 | 0.00 | 0.04 | 0.00 | 89 | 1021.3 |
| 20260502194551 | 63 | 183 | 0.9 | 4.3 | 0.00 | 0.04 | 0.00 | 89 | 1021.0 |
| 20260502193050 | 63 | 178 | 1.7 | 4.3 | 0.00 | 0.04 | 0.00 | 89 | 1021.0 |
| 20260502191546 | 63 | 193 | 0.9 | 4.3 | 0.00 | 0.04 | 0.00 | 89 | 1021.1 |
| 20260502190045 | 63 | 173 | 0.9 | 6.1 | 0.00 | 0.04 | 0.00 | 89 | 1020.9 |
| 20260502184543 | 63 | 157 | 0.9 | 4.3 | 0.00 | 0.04 | 0.00 | 89 | 1020.9 |
| 20260502183042 | 63 | 197 | 0.9 | 3.5 | 0.00 | 0.04 | 0.00 | 89 | 1020.7 |
| 20260502181540 | 64 | 216 | 0.9 | 2.6 | 0.00 | 0.04 | 0.00 | 89 | 1020.8 |
| 20260502163032 | 64 | 269 | 0.9 | 6.1 | 0.00 | 0.16 | 0.00 | 91 | 1021.3 |
| 20260502161526 | 65 | 210 | 0.9 | 4.3 | 0.00 | 0.16 | 0.00 | 91 | 1021.3 |
| 20260502151522 | 65 | 197 | 2.6 | 6.1 | 0.00 | 0.16 | 0.00 | 92 | 1021.7 |
| 20260502123011 | 67 | 161 | 1.7 | 4.3 | 0.00 | 0.17 | 0.16 | 93 | 1022.2 |
| 20260502121503 | 67 | 162 | 2.6 | 7.0 | 0.00 | 0.17 | 0.16 | 93 | 1022.6 |
| 20260502120113 | 67 | 187 | 4.3 | 7.8 | 0.00 | 0.17 | 0.16 | 93 | 1022.6 |
| 20260502114502 | 67 | 160 | 3.5 | 6.1 | 0.00 | 0.25 | 0.16 | 93 | 1022.5 |
| 20260502113001 | 67 | 159 | 3.5 | 6.1 | 0.00 | 0.25 | 0.16 | 93 | 1022.4 |
| 20260502111601 | 67 | 127 | 2.6 | 6.1 | 0.02 | 0.25 | 0.16 | 93 | 1022.3 |
| 20260502110100 | 67 | 173 | 3.5 | 6.1 | 0.02 | 0.25 | 0.16 | 93 | 1022.5 |
| 20260502110003 | 67 | 178 | 2.6 | 6.1 | 0.02 | 0.35 | 0.16 | 93 | 1022.5 |
| 20260502104658 | 67 | 167 | 2.6 | 5.2 | 0.02 | 0.35 | 0.16 | 92 | 1022.4 |
| 20260502103102 | 68 | 216 | 0.9 | 6.1 | 0.02 | 0.35 | 0.16 | 91 | 1022.4 |
| 20260502101615 | 68 | 174 | 4.3 | 10.4 | 0.01 | 0.34 | 0.14 | 91 | 1022.4 |
| 20260502100109 | 68 | 206 | 1.7 | 3.5 | 0.00 | 0.33 | 0.13 | 91 | 1022.3 |
| 20260502070050 | 70 | 187 | 2.6 | 5.2 | 0.00 | 0.33 | 0.13 | 88 | 1020.7 |
| 20260502064612 | 71 | 194 | 2.6 | 6.1 | 0.00 | 0.33 | 0.13 | 86 | 1020.5 |
| 20260502063053 | 71 | 152 | 2.6 | 6.1 | 0.00 | 0.33 | 0.13 | 85 | 1020.4 |
| 20260502061543 | 72 | 135 | 1.7 | 7.8 | 0.00 | 0.33 | 0.13 | 84 | 1020.6 |
| 20260502060045 | 72 | 124 | 2.6 | 7.8 | 0.00 | 0.33 | 0.13 | 84 | 1020.5 |
| 20260502054540 | 71 | 185 | 0.9 | 8.7 | 0.00 | 0.33 | 0.13 | 85 | 1020.5 |
| 20260502053040 | 71 | 129 | 3.5 | 7.8 | 0.00 | 0.33 | 0.13 | 85 | 1020.5 |
| 20260502051538 | 73 | 116 | 3.5 | 13.9 | 0.00 | 0.33 | 0.13 | 79 | 1020.5 |